Regional Weather Roundup
Issued by NWS

Home | Current Version | Previous Version | Text Only | Print | Product List | Glossary Off
Versions: 1 2 3 4 5 6 7 8 9 10 11 12 13 14 15 16 17 18 19 20 21 22 23 24 25 26 27 28 29 30 31 32 33 34 35 36 37 38 39 40 41 42 43 44 45 46 47 48 49 50

000
ASUS43 KLOT 301022
RWRIL

ILLINOIS REGIONAL WEATHER ROUNDUP
NATIONAL WEATHER SERVICE CHICAGO/ROMEOVILLE IL
500 AM CDT SAT MAY 30 2015

NOTE: "FAIR" INDICATES FEW OR NO CLOUDS BELOW 12,000 FEET WITH NO
SIGNIFICANT WEATHER AND/OR OBSTRUCTIONS TO VISIBILITY.

* THESE STATIONS ARE NOT UNDER NWS QUALITY CONTROL. THEY ALSO MAY NOT
  REPORT WEATHER SUCH AS PRECIPITATION OR FOG.

ILZ001-002-007-009-015-016-024-301100-
NORTHWEST ILLINOIS

CITY           SKY/WX    TMP DP  RH WIND       PRES   REMARKS
MOLINE         CLOUDY    66  63  90 S6        29.93R
STERLING*      CLOUDY    66  63  88 SW3       29.94S
SAVANNA*       CLOUDY    68  62  80 SW6       29.93R
$$

ILZ003-004-008-010-011-017-018-301100-
NORTH CENTRAL ILLINOIS

CITY           SKY/WX    TMP DP  RH WIND       PRES   REMARKS
ROCKFORD       LGT RAIN  67  64  90 SW6       29.95S
FREEPORT*      CLOUDY    64  62  92 SW7       29.96R
ROCHELLE*      DRIZZLE   65  64  96 W5        29.94F
DE KALB*       CLOUDY    65  62  90 W12       29.95F
PERU*          DRIZZLE   67  65  93 SW7       29.97R
$$

ILZ005-006-012>014-019>023-301100-
NORTHEAST ILLINOIS

CITY           SKY/WX    TMP DP  RH WIND       PRES   REMARKS
CHICAGO-OHARE  LGT RAIN  69  65  86 W7        29.94R
CHICAGO-MIDWAY CLOUDY    71  66  84 SW7       29.94R
AURORA         CLOUDY    69  64  84 SW6       29.94F
LANSING*       RAIN      67  64  90 SW7       29.97R
JOLIET*        LGT RAIN  69  68  96 SW3       29.96R
WAUKEGAN       CLOUDY    67  63  87 CALM      29.93R
DUPAGE AIRPORT LGT RAIN  69  64  84 W7        29.94S
KANKAKEE*      CLOUDY    68  67  95 W5        29.97S
WHEELING       CLOUDY    69  65  86 W3        29.95R
MORRIS*        CLOUDY    67  66  94 S6        29.95R
ROMEOVILLE*    RAIN      67  65  93 S8        29.96R
NORTHERLY ISL    N/A     70  64  81 SW6         N/A
$$

LMZ740>746-301100-
SOUTHERN LAKE MICHIGAN

STATION/POSITION SKY/WX   TEMP    WIND        PRES    VSBY  WAVE
                          AIR SEA DIR/SP/G                  HT/PER
                          (F)     (DEG/KT/KT) (MB)    (MI)  (FT/S)
SOUTHERN BUOY              46 38  180/  4/  4 1014.2R         1
HARRISON CRIB              69     250/ 10/ 14   N/A
BURNHAM HARBOR             70     230/  5/  9   N/A
CALUMET HARBOR             69     200/  5/  8   N/A
BURNS HARBOR               69     200/  8/ 14 1014.6S
MICHIGAN CITY              68     180/ 11/ 12   N/A
MICHIGAN CITY 6N           61 56  220/  6/  8   N/A           1
ST. JOSEPH                 62 58  230/  6/  6   N/A           1/ 2
$$

ILZ025>027-034>036-040-047-049-050-058-095>099-301100-
WEST-CENTRAL ILLINOIS

CITY           SKY/WX    TMP DP  RH WIND       PRES   REMARKS
QUINCY         LGT RAIN  65  64  97 S3        29.96R
GALESBURG*     DRIZZLE   64  63  96 CALM      29.95S
MACOMB*        LGT RAIN  65  64  99 CALM      29.98R
JACKSONVILLE*  DRIZZLE   67  65  94 CALM      29.96F
PITTSFIELD*    DRIZZLE   66  64  93 CALM      29.97S
$$

ILZ028>032-037-038-041>044-048-051>054-059>061-301100-
CENTRAL ILLINOIS

CITY           SKY/WX    TMP DP  RH WIND       PRES   REMARKS
PONTIAC        RAIN      69  68  98 CALM      29.98S
BLOOMINGTON    RAIN      66  66 100 NW6       29.99R FOG
DECATUR        HVY RAIN  66  65  96 N3        29.97S FOG
PEORIA         RAIN      68  64  87 CALM      29.96S FOG
LACON*         RAIN      66  65  94 CALM      29.96R
LINCOLN*       HVY RAIN  67  66  95 N5        29.95S
SPRINGFIELD    CLOUDY    67  64  90 E5        29.96F
TAYLORVILLE    CLOUDY    64  64 100 CALM      29.96R
$$

ILZ033-039-045-046-055>057-062-063-301100-
EAST-CENTRAL ILLINOIS

CITY           SKY/WX    TMP DP  RH WIND       PRES   REMARKS
CHAMPAIGN      CLOUDY    69  65  86 CALM      29.98S
DANVILLE*      CLOUDY    67  64  90 SW5       29.97S
RANTOUL*       CLOUDY    69  67  94 CALM      29.98S
MATTOON        CLOUDY    67  65  93 CALM      29.97F
PARIS*         CLOUDY    68  65  89 S3        30.00S
$$

ILZ079-100>102-301100-
SOUTHWEST ILLINOIS

CITY           SKY/WX    TMP DP  RH WIND       PRES   REMARKS
ALTON          LGT RAIN  68  68 100 CALM      29.95S
BELLEVILLE     HVY RAIN  70  70 100 VRB3      29.93S VSB 3/4
CAHOKIA*       LGT RAIN  69  67  93 CALM      29.94F FOG
SPARTA*        CLOUDY    68  67  97 SE3       29.95F
$$

ILZ064>066-069>071-074>076-080>082-084>086-088>090-092>094-301100-
SOUTH-CENTRAL ILLINOIS

CITY           SKY/WX    TMP DP  RH WIND       PRES   REMARKS
CARBONDALE     CLOUDY    71  68  90 S5        29.95S
CAIRO*         CLOUDY    73  68  83 SE7       29.96S
EFFINGHAM*     MOCLDY    67  64  90 E7        29.98F
MARION         MOCLDY    73  68  83 S7        29.97S
MT. VERNON     MOCLDY    68  63  83 S3        29.97S
CENTRALIA*     CLOUDY    68  66  93 S7        29.95S
SALEM*         CLOUDY    71  67  88 SE5       29.96S
METROPOLIS*    MOCLDY    72  71  99 CALM      29.97F
$$

ILZ067-068-072-073-078-083-087-091-301100-
SOUTHEAST ILLINOIS

CITY           SKY/WX    TMP DP  RH WIND       PRES   REMARKS
LAWRENCEVILLE  MOCLDY    68  66  93 SE7       29.99F
FLORA*         MOCLDY    67  66  96 SE6       29.97F
FAIRFIELD*     MOCLDY    70  67  90 SE6       29.96F
HARRISBURG*    MOCLDY    74  68  83 S8        29.98F
ROBINSON*      PTCLDY    66  64  94 S3        30.00S
CARMI*         MOCLDY    72  64  78 SE7       29.98S
$$

ABBREVIATIONS USED IN REMARKS
   TC - TEMPERATURE IN CELSIUS
  WCI - WIND CHILL INDEX
   HX - HEAT INDEX
  VSB - VISIBILITY
$$




USA.gov is the U.S. government's official web portal to all federal, state and local government web resources and services.